Weather History for Boston, MA

Change the Weather History Date:

Wednesday, March 6, 2013

  Actual Average Record
Temperature  
Mean Temperature 38 °F 36 °F  
Max Temperature 41 °F 43 °F 70 °F (1894)
Min Temperature 35 °F 28 °F -8 °F (1972)
Degree Days  
Heating Degree Days 27 29  
Month to date heating degree days 164 180  
Since 1 July heating degree days 3966 4222  
Cooling Degree Days 0 0  
Month to date cooling degree days 0 0  
Year to date cooling degree days 0 0  
Moisture  
Dew Point 33 °F    
Average Humidity 77    
Maximum Humidity 89    
Minimum Humidity 64    
Precipitation  
Precipitation 0.05 in 0.13 in 2.15 in (1943)
Month to date precipitation 0.05 0.79  
Year to date precipitation 6.39 7.40  
Sea Level Pressure  
Sea Level Pressure 30.08 in    
Wind  
Wind Speed 23 mph (ENE)    
Max Wind Speed 36 mph    
Max Gust Speed 47 mph    
Visibility 8 miles    
Events Rain , Snow    
T = Trace of Precipitation, MM = Missing Value Source: NWS Daily Summary

Daily Weather History Graph

Daily Weather History Graph

Search for Another Location

Airport:

Trip Planner

Search our weather history database for the weather conditions in past years. The results will help you decide how hot, cold, wet, or windy it might be!

Date:

Astronomy

Mar. 06, 2013 Rise Set
Actual Time 6:10 AM EST 5:40 PM EST
Civil Twilight 5:42 AM EST 6:08 PM EST
Nautical Twilight 5:10 AM EST 6:40 PM EST
Astronomical Twilight 4:37 AM EST 7:13 PM EST
Moon 2:22 AM EST (3/6) 12:13 PM EST (3/6)
Length of Visible Light 12h 25m
Length of Day
11h 29m
Waning Crescent, 30% of the Moon is Illuminated
Mar 6
Waning Crescent
Mar 11
New
Mar 19
First Quarter
Mar 27
Full
Apr 3
Last Quarter

Hourly Weather History & Observations

Time (EST) Temp. Windchill Dew Point Humidity Pressure Visibility Wind Dir Wind Speed Gust Speed Precip Events Conditions
12:54 AM 37.0 °F 29.3 °F 32.0 °F 82% 30.06 in 10.0 mi NNE 11.5 mph - 0.00 in Rain Light Rain
1:43 AM 35.6 °F 28.0 °F 33.8 °F 93% 30.05 in 10.0 mi NNE 10.4 mph - 0.00 in   Mostly Cloudy
1:54 AM 37.0 °F 29.8 °F 34.0 °F 89% 30.05 in 10.0 mi NNE 10.4 mph - 0.00 in   Mostly Cloudy
2:54 AM 37.9 °F 29.2 °F 34.0 °F 86% 30.05 in 10.0 mi NE 15.0 mph - 0.00 in   Mostly Cloudy
3:52 AM 37.4 °F 29.3 °F 33.8 °F 87% 30.06 in 10.0 mi NE 12.7 mph - N/A   Overcast
3:54 AM 37.9 °F 29.6 °F 34.0 °F 86% 30.06 in 9.0 mi NE 13.8 mph - 0.00 in Rain Light Rain
4:12 AM 37.4 °F 26.6 °F 33.8 °F 87% 30.06 in 7.0 mi ENE 21.9 mph 28.8 mph 0.01 in Rain Rain
4:54 AM 37.9 °F 27.6 °F 34.0 °F 86% 30.07 in 10.0 mi ENE 20.7 mph - 0.03 in Rain Light Rain
5:38 AM 39.2 °F 29.0 °F 33.8 °F 81% 30.06 in 10.0 mi ENE 21.9 mph 28.8 mph 0.00 in   Overcast
5:54 AM 39.0 °F 29.0 °F 34.0 °F 82% 30.06 in 10.0 mi ENE 20.7 mph 27.6 mph 0.00 in   Overcast
6:04 AM 37.4 °F 26.1 °F 33.8 °F 87% 30.06 in 10.0 mi ENE 24.2 mph 31.1 mph 0.00 in Rain Light Rain
6:35 AM 37.4 °F 25.6 °F 33.8 °F 87% 30.07 in 6.0 mi East 26.5 mph 32.2 mph 0.00 in Rain Light Rain
6:54 AM 39.0 °F 28.5 °F 34.0 °F 82% 30.08 in 10.0 mi East 23.0 mph 31.1 mph 0.00 in   Overcast
7:54 AM 39.0 °F 28.5 °F 33.1 °F 79% 30.11 in 10.0 mi East 23.0 mph 34.5 mph 0.00 in Rain Light Rain
8:51 AM 37.4 °F 26.4 °F 33.8 °F 87% 30.10 in 10.0 mi East 23.0 mph 38.0 mph 0.00 in Rain Light Rain
8:54 AM 39.0 °F 29.0 °F 33.1 °F 79% 30.10 in 10.0 mi ENE 20.7 mph 28.8 mph 0.00 in Rain Light Rain
9:54 AM 39.0 °F 27.8 °F 30.0 °F 70% 30.12 in 10.0 mi East 26.5 mph 33.4 mph N/A   Overcast
10:54 AM 39.0 °F 27.8 °F 28.9 °F 67% 30.10 in 10.0 mi ENE 26.5 mph - N/A   Overcast
11:54 AM 39.0 °F 28.5 °F 32.0 °F 76% 30.09 in 10.0 mi ENE 23.0 mph 34.5 mph 0.00 in   Overcast
12:43 PM 39.2 °F 27.4 °F 33.8 °F 81% 30.09 in 10.0 mi ENE 29.9 mph 36.8 mph 0.00 in   Overcast
12:54 PM 39.9 °F 29.5 °F 33.1 °F 77% 30.09 in 10.0 mi ENE 24.2 mph - 0.00 in   Overcast
1:35 PM 37.4 °F 25.2 °F 33.8 °F 87% 30.08 in 7.0 mi ENE 28.8 mph 40.3 mph 0.00 in Rain Light Rain
1:45 PM 39.2 °F 27.8 °F 33.8 °F 81% 30.08 in 10.0 mi ENE 27.6 mph 34.5 mph 0.00 in Rain Light Rain
1:54 PM 37.9 °F 27.3 °F 33.1 °F 83% 30.08 in 9.0 mi ENE 21.9 mph 34.5 mph 0.00 in Rain Light Rain
2:11 PM 39.2 °F 27.8 °F 33.8 °F 81% 30.08 in 10.0 mi ENE 27.6 mph 34.5 mph 0.00 in   Overcast
2:36 PM 37.4 °F 25.4 °F 33.8 °F 87% 30.08 in 5.0 mi ENE 27.6 mph 33.4 mph 0.00 in Rain Light Rain
2:54 PM 37.9 °F 26.3 °F 33.1 °F 83% 30.08 in 10.0 mi ENE 26.5 mph 40.3 mph 0.00 in   Overcast
3:28 PM 37.4 °F 25.2 °F 33.8 °F 87% 30.08 in 8.0 mi ENE 28.8 mph 34.5 mph 0.00 in   Overcast
3:43 PM 37.4 °F 24.6 °F 33.8 °F 87% 30.08 in 7.0 mi ENE 32.2 mph 40.3 mph 0.00 in Rain Light Rain
3:54 PM 36.0 °F 23.2 °F 30.9 °F 82% 30.08 in 5.0 mi ENE 28.8 mph 42.6 mph 0.00 in Snow Light Snow
4:47 PM 37.4 °F 26.1 °F 32.0 °F 81% 30.09 in 8.0 mi ENE 24.2 mph 35.7 mph 0.00 in   Overcast
4:54 PM 36.0 °F 23.9 °F 30.9 °F 82% 30.09 in 3.0 mi ENE 25.3 mph 38.0 mph 0.00 in   Overcast
5:54 PM 36.0 °F 24.2 °F 32.0 °F 86% 30.09 in 6.0 mi ENE 24.2 mph 35.7 mph 0.01 in Rain , Snow Light Snow
6:05 PM 35.6 °F 23.2 °F 32.0 °F 87% 30.09 in 2.5 mi ENE 26.5 mph 41.4 mph 0.00 in Rain , Snow Light Snow
6:30 PM 37.4 °F 25.0 °F 33.8 °F 87% 30.08 in 2.5 mi NE 29.9 mph 42.6 mph 0.01 in   Overcast
6:39 PM 37.4 °F 24.6 °F 32.0 °F 81% 30.08 in 7.0 mi NE 32.2 mph 42.6 mph 0.01 in   Overcast
6:54 PM 37.0 °F 26.2 °F 32.0 °F 82% 30.09 in 10.0 mi ENE 21.9 mph 36.8 mph 0.01 in   Overcast
7:54 PM 37.0 °F 24.3 °F 30.9 °F 79% 30.09 in 7.0 mi ENE 31.1 mph 40.3 mph 0.00 in   Overcast
8:54 PM 37.0 °F 25.6 °F 30.9 °F 79% 30.08 in 10.0 mi NE 24.2 mph 36.8 mph 0.00 in   Overcast
9:54 PM 35.1 °F 22.7 °F 30.0 °F 82% 30.07 in 4.0 mi NE 25.3 mph 39.1 mph 0.00 in Rain Light Rain
10:54 PM 37.0 °F 24.1 °F 30.0 °F 76% 30.06 in 10.0 mi ENE 32.2 mph 41.4 mph 0.00 in Rain Light Rain
11:54 PM 37.0 °F 24.9 °F 28.9 °F 73% 30.06 in 10.0 mi NE 27.6 mph 36.8 mph 0.00 in   Overcast